This is the latest recevied weather packets stored in our database for station/object HB9FHL-13. If no packets are shown the sender has not sent any weather packets the latest 10 day(s).
| Time | Temp. | Humidity | Pressure | Rain* | Wind** | Luminosity | Snow |
|---|---|---|---|---|---|---|---|
| 1777314676 | 16.67° C | - | 1013.6 hPa | 0 mm | - | - | - |
| 1777314376 | 16.11° C | - | 1018.1 hPa | 0 mm | - | - | - |
| 1777314075 | 16.67° C | - | 1022.3 hPa | 0 mm | - | - | - |
| 1777313775 | 16.11° C | - | 1019.4 hPa | 0 mm | - | - | - |
| 1777313474 | 17.22° C | - | 1018.7 hPa | 0 mm | - | - | - |
| 1777313174 | 17.22° C | - | 1024.9 hPa | 0 mm | - | - | - |
| 1777312873 | 17.22° C | - | 1021 hPa | 0 mm | - | - | - |
| 1777312573 | 18.33° C | - | 1018.5 hPa | 0 mm | - | - | - |
| 1777312336 | 17.22° C | - | 1017.9 hPa | 0 mm | - | - | - |
| 1777312272 | 17.22° C | - | 1017.9 hPa | 0 mm | - | - | - |
| 1777311972 | 17.78° C | - | 1020.1 hPa | 0 mm | - | - | - |
| 1777311668 | 17.78° C | - | 1018.7 hPa | 0 mm | - | - | - |
| 1777311367 | 17.78° C | - | 1014 hPa | 0 mm | - | - | - |
| 1777311098 | 18.33° C | - | 1011.9 hPa | 0 mm | - | - | - |
| 1777311067 | 18.33° C | - | 1011.9 hPa | 0 mm | - | - | - |
| 1777310766 | 17.78° C | - | 1017.3 hPa | 0 mm | - | - | - |
| 1777310466 | 18.33° C | - | 1015.9 hPa | 0 mm | - | - | - |
| 1777310165 | 17.22° C | - | 1019.8 hPa | 0 mm | - | - | - |
| 1777309954 | 17.78° C | - | 1016.3 hPa | 0 mm | - | - | - |
| 1777309865 | 17.78° C | - | 1016.3 hPa | 0 mm | - | - | - |
| 1777309564 | 17.78° C | - | 1019.4 hPa | 0 mm | - | - | - |
| 1777309264 | 17.78° C | - | 1013.9 hPa | 0 mm | - | - | - |
| 1777308963 | 17.78° C | - | 1018.7 hPa | 0 mm | - | - | - |
| 1777308663 | 18.89° C | - | 1015.7 hPa | 0 mm | - | - | - |
| 1777308362 | 18.89° C | - | 1016.4 hPa | 0 mm | - | - | - |
* Rain since midnight (hover to see other rain measurements)
** Current wind speed in m/s (hover to see current wind gust speed)